This is the latest recevied weather packets stored in our database for station/object WC4PEM-12. If no packets are shown the sender has not sent any weather packets the latest 1 day(s).
| Time | Temp. | Humidity | Pressure | Rain* | Wind** | Luminosity | Snow |
|---|---|---|---|---|---|---|---|
| 1778077741 | 27.78° C | 73% | 1017.4 hPa | 0 mm | - | - | - |
| 1778076922 | 27.78° C | 74% | 1017.4 hPa | 0 mm | - | - | - |
| 1778076457 | 27.22° C | 76% | 1017.3 hPa | 0 mm | - | - | - |
| 1778076358 | 27.22° C | 76% | 1017.3 hPa | 0 mm | - | - | - |
| 1778074673 | 25.56° C | 81% | 1017.3 hPa | 0 mm | - | - | - |
| 1778074373 | 25.56° C | 82% | 1017.3 hPa | 0 mm | - | - | - |
| 1778074073 | 25° C | 83% | 1017.2 hPa | 0 mm | - | - | - |
| 1778073773 | 24.44° C | 86% | 1017.3 hPa | 0 mm | - | - | - |
| 1778073473 | 24.44° C | 86% | 1017 hPa | 0 mm | - | - | - |
| 1778073173 | 23.89° C | 87% | 1016.9 hPa | 0 mm | - | - | - |
| 1778072873 | 23.89° C | 87% | 1017 hPa | 0 mm | - | - | - |
| 1778072573 | 23.33° C | 89% | 1016.9 hPa | 0 mm | - | - | - |
| 1778072273 | 23.33° C | 89% | 1016.8 hPa | 0 mm | - | - | - |
| 1778071973 | 23.33° C | 90% | 1016.8 hPa | 0 mm | - | - | - |
| 1778071673 | 22.78° C | 91% | 1016.7 hPa | 0 mm | - | - | - |
| 1778071373 | 22.22° C | 92% | 1016.7 hPa | 0 mm | - | - | - |
| 1778071073 | 22.22° C | 92% | 1016.7 hPa | 0 mm | - | - | - |
| 1778070773 | 22.22° C | 92% | 1016.7 hPa | 0 mm | - | - | - |
| 1778070473 | 21.67° C | 93% | 1016.6 hPa | 0 mm | - | - | - |
| 1778070173 | 21.67° C | 93% | 1016.6 hPa | 0 mm | - | - | - |
| 1778069873 | 21.67° C | 94% | 1016.6 hPa | 0 mm | - | - | - |
| 1778069573 | 21.11° C | 94% | 1016.6 hPa | 0 mm | - | - | - |
| 1778069273 | 21.11° C | 94% | 1016.6 hPa | 0 mm | - | - | - |
| 1778069012 | 21.11° C | 94% | 1016.5 hPa | 0 mm | - | - | - |
| 1778068973 | 21.11° C | 94% | 1016.5 hPa | 0 mm | - | - | - |
* Rain latest hour (hover to see other rain measurements)
** Current wind speed in m/s (hover to see current wind gust speed)